Location: Unspecified
(48.2082°N, 0.0000°E)
Time: 22:33:38
(UTC+00:00)

S-56A Canister/Altair - Pass Details

Date: 21 June 2019
Orbit: 633 x 2499 km, 38.9° (Epoch: 22 October)

Event Time Altitude Azimuth Distance (km) Brightness Sun altitude
Rises 18:12:34 0° 253° (WSW) 4,398 12.4 15.5°
Reaches altitude 10° 18:16:13 10° 246° (WSW) 3,110 11.5 15.0°
Maximum altitude 18:22:38 35° 184° (S) 1,426 8.9 14.0°
Drops below altitude 10° 18:27:20 10° 119° (ESE) 2,266 9.4 13.2°
Sets 18:29:37 0° 109° (ESE) 3,067 10.0 12.9°
